When you browse on this site, cookies collect data to enhance your experience and personalize the content and advertising you see.
Visit our Privacy Policy to learn more. By continuing to use the site, you agree to this use of cookies and data.
  • în România
  • Lista ţărilor
  • Pe 7 zile
  • Temperatura apei
  • Hartă satelitară
  • Meteo pe hartă
  • Widget-uri
  • user-avatar
    Intrare

    Meteo pe oră la Abishevo

    Astăzi, 22 Iulie, Luni

    Timp Temperatura Precipitaţii Vânt Presiune Umiditate
    00:00 +17°C° 0 mm 2 m/s 749 mmHg 91%
    01:00 +17°C° 0 mm 2 m/s 749 mmHg 92%
    02:00 +16°C° 0 mm 2 m/s 749 mmHg 92%
    03:00 +16°C° 0 mm 2 m/s 748 mmHg 93%
    04:00 +16°C° 0 mm 2 m/s 748 mmHg 93%
    05:00 +17°C° 0 mm 2 m/s 748 mmHg 92%
    06:00 +18°C° 0 mm 2 m/s 749 mmHg 90%
    07:00 +19°C° 0 mm 2 m/s 749 mmHg 89%
    08:00 +20°C° 0 mm 3 m/s 749 mmHg 85%
    09:00 +21°C° 0 mm 3 m/s 748 mmHg 81%
    10:00 +22°C° 0 mm 4 m/s 748 mmHg 76%
    11:00 +22°C° 0.3 mm 4 m/s 748 mmHg 74%
    12:00 +23°C° 0.3 mm 4 m/s 748 mmHg 72%
    13:00 +23°C° 0.3 mm 4 m/s 748 mmHg 70%
    14:00 +23°C° 0.2 mm 4 m/s 748 mmHg 70%
    15:00 +23°C° 0.2 mm 4 m/s 747 mmHg 71%
    16:00 +23°C° 0.2 mm 4 m/s 747 mmHg 71%
    17:00 +23°C° 0.2 mm 4 m/s 747 mmHg 75%
    18:00 +22°C° 0.2 mm 3 m/s 747 mmHg 79%
    19:00 +21°C° 0.2 mm 2 m/s 747 mmHg 84%
    20:00 +20°C° 0.4 mm 2 m/s 747 mmHg 87%
    21:00 +19°C° 0.4 mm 2 m/s 746 mmHg 89%
    22:00 +17°C° 0.4 mm 2 m/s 746 mmHg 92%
    23:00 +17°C° 0 mm 2 m/s 746 mmHg 92%

    Mâine, 23 Iulie, Marţi

    Timp Temperatura Precipitaţii Vânt Presiune Umiditate
    00:00 +16°C° 0 mm 2 m/s 746 mmHg 93%
    01:00 +16°C° 0 mm 2 m/s 746 mmHg 93%
    02:00 +15°C° 0 mm 2 m/s 746 mmHg 94%
    03:00 +15°C° 0 mm 2 m/s 746 mmHg 94%
    04:00 +14°C° 0 mm 2 m/s 746 mmHg 95%
    05:00 +15°C° 0 mm 2 m/s 747 mmHg 94%
    06:00 +16°C° 0 mm 3 m/s 747 mmHg 93%
    07:00 +17°C° 0 mm 3 m/s 747 mmHg 92%
    08:00 +18°C° 0 mm 3 m/s 747 mmHg 87%
    09:00 +19°C° 0 mm 3 m/s 747 mmHg 82%
    10:00 +21°C° 0 mm 4 m/s 747 mmHg 78%
    11:00 +21°C° 0.3 mm 4 m/s 747 mmHg 75%
    12:00 +22°C° 0.3 mm 4 m/s 747 mmHg 73%
    13:00 +23°C° 0.3 mm 5 m/s 747 mmHg 70%
    14:00 +23°C° 0.3 mm 5 m/s 747 mmHg 71%
    15:00 +23°C° 0.3 mm 5 m/s 747 mmHg 71%
    16:00 +23°C° 0.3 mm 5 m/s 747 mmHg 71%
    17:00 +22°C° 0.2 mm 4 m/s 748 mmHg 75%
    18:00 +21°C° 0.2 mm 4 m/s 748 mmHg 80%
    19:00 +21°C° 0.2 mm 3 m/s 748 mmHg 84%
    20:00 +19°C° 0 mm 3 m/s 748 mmHg 87%
    21:00 +18°C° 0 mm 2 m/s 748 mmHg 90%
    22:00 +17°C° 0 mm 2 m/s 748 mmHg 93%
    23:00 +16°C° 0 mm 2 m/s 748 mmHg 94%

    Poimâine, 24 Iulie, Miercuri

    Timp Temperatura Precipitaţii Vânt Presiune Umiditate
    00:00 +16°C° 0 mm 2 m/s 749 mmHg 94%
    01:00 +16°C° 0 mm 2 m/s 749 mmHg 94%
    02:00 +15°C° 0 mm 2 m/s 749 mmHg 94%
    03:00 +15°C° 0 mm 2 m/s 749 mmHg 95%
    04:00 +15°C° 0 mm 1 m/s 749 mmHg 95%
    05:00 +16°C° 0 mm 2 m/s 749 mmHg 93%
    06:00 +17°C° 0 mm 2 m/s 749 mmHg 91%
    07:00 +18°C° 0 mm 2 m/s 749 mmHg 89%
    08:00 +19°C° 0 mm 2 m/s 749 mmHg 84%
    09:00 +21°C° 0 mm 2 m/s 749 mmHg 80%
    10:00 +23°C° 0 mm 2 m/s 749 mmHg 75%
    11:00 +24°C° 0 mm 2 m/s 749 mmHg 73%
    12:00 +24°C° 0 mm 2 m/s 750 mmHg 70%
    13:00 +25°C° 0 mm 2 m/s 750 mmHg 68%
    14:00 +25°C° 0.1 mm 3 m/s 749 mmHg 68%
    15:00 +25°C° 0.1 mm 3 m/s 749 mmHg 69%
    16:00 +26°C° 0.1 mm 3 m/s 749 mmHg 69%
    17:00 +25°C° 0.1 mm 3 m/s 749 mmHg 74%
    18:00 +24°C° 0.1 mm 3 m/s 749 mmHg 79%
    19:00 +24°C° 0.1 mm 2 m/s 749 mmHg 83%
    20:00 +21°C° 0 mm 2 m/s 750 mmHg 86%
    21:00 +20°C° 0 mm 2 m/s 750 mmHg 89%
    22:00 +18°C° 0 mm 2 m/s 750 mmHg 92%
    23:00 +18°C° 0 mm 2 m/s 750 mmHg 93%

    25 Iulie, Joi

    Timp Temperatura Precipitaţii Vânt Presiune Umiditate
    00:00 +18°C° 0 mm 1 m/s 750 mmHg 93%
    01:00 +18°C° 0 mm 1 m/s 750 mmHg 94%
    02:00 +18°C° 0 mm 1 m/s 750 mmHg 95%
    03:00 +16°C° 0 mm 1 m/s 750 mmHg 96%
    04:00 +16°C° 0 mm 1 m/s 750 mmHg 96%
    05:00 +17°C° 0 mm 2 m/s 750 mmHg 95%
    06:00 +18°C° 0 mm 2 m/s 750 mmHg 94%
    07:00 +19°C° 0 mm 2 m/s 751 mmHg 92%
    08:00 +20°C° 0 mm 3 m/s 751 mmHg 87%
    09:00 +22°C° 0 mm 3 m/s 751 mmHg 81%
    10:00 +24°C° 0 mm 3 m/s 751 mmHg 76%
    11:00 +25°C° 0 mm 3 m/s 751 mmHg 73%
    12:00 +26°C° 0 mm 3 m/s 751 mmHg 69%
    13:00 +27°C° 0 mm 3 m/s 751 mmHg 66%
    14:00 +27°C° 0.2 mm 3 m/s 750 mmHg 66%
    15:00 +27°C° 0.2 mm 3 m/s 750 mmHg 66%
    16:00 +27°C° 0.2 mm 3 m/s 750 mmHg 67%
    17:00 +26°C° 0.2 mm 3 m/s 750 mmHg 71%
    18:00 +26°C° 0.2 mm 3 m/s 750 mmHg 75%
    19:00 +25°C° 0.2 mm 2 m/s 750 mmHg 79%
    20:00 +23°C° 0 mm 2 m/s 750 mmHg 81%
    21:00 +21°C° 0 mm 2 m/s 750 mmHg 84%
    22:00 +20°C° 0 mm 2 m/s 750 mmHg 86%
    23:00 +19°C° 0 mm 2 m/s 750 mmHg 87%

    26 Iulie, Vineri

    Timp Temperatura Precipitaţii Vânt Presiune Umiditate
    00:00 +20°C° 0 mm 1 m/s 750 mmHg 87%
    01:00 +19°C° 0 mm 1 m/s 750 mmHg 88%
    02:00 +19°C° 0 mm 1 m/s 750 mmHg 88%
    03:00 +19°C° 0 mm 1 m/s 750 mmHg 88%
    04:00 +18°C° 0 mm 1 m/s 750 mmHg 88%
    05:00 +19°C° 0 mm 1 m/s 750 mmHg 85%
    06:00 +20°C° 0 mm 1 m/s 750 mmHg 83%
    07:00 +21°C° 0 mm 1 m/s 751 mmHg 81%
    08:00 +23°C° 0 mm 1 m/s 750 mmHg 76%
    09:00 +24°C° 0 mm 1 m/s 750 mmHg 71%
    10:00 +25°C° 0 mm 1 m/s 750 mmHg 66%
    11:00 +26°C° 0 mm 1 m/s 750 mmHg 63%
    12:00 +27°C° 0 mm 1 m/s 750 mmHg 59%
    13:00 +28°C° 0 mm 1 m/s 750 mmHg 56%
    14:00 +28°C° 0 mm 1 m/s 750 mmHg 57%
    15:00 +28°C° 0 mm 2 m/s 749 mmHg 58%
    16:00 +28°C° 0 mm 2 m/s 749 mmHg 58%
    17:00 +27°C° 0.2 mm 2 m/s 749 mmHg 64%
    18:00 +26°C° 0.2 mm 2 m/s 749 mmHg 70%
    19:00 +25°C° 0.2 mm 2 m/s 749 mmHg 76%
    20:00 +23°C° 0 mm 2 m/s 748 mmHg 78%
    21:00 +22°C° 0 mm 1 m/s 748 mmHg 80%
    22:00 +21°C° 0 mm 1 m/s 748 mmHg 82%
    23:00 +20°C° 0 mm 1 m/s 748 mmHg 83%

    27 Iulie, Sâmbătă

    Timp Temperatura Precipitaţii Vânt Presiune Umiditate
    00:00 +19°C° 0 mm 1 m/s 748 mmHg 84%
    01:00 +19°C° 0 mm 1 m/s 748 mmHg 85%
    02:00 +18°C° 0 mm 1 m/s 748 mmHg 86%
    03:00 +18°C° 0 mm 1 m/s 748 mmHg 86%
    04:00 +18°C° 0 mm 1 m/s 748 mmHg 87%
    05:00 +19°C° 0 mm 1 m/s 748 mmHg 84%
    06:00 +18°C° 0 mm 0 m/s 747 mmHg 81%
    07:00 +19°C° 0 mm 0 m/s 747 mmHg 78%
    08:00 +22°C° 0 mm 1 m/s 747 mmHg 72%
    09:00 +24°C° 0 mm 1 m/s 747 mmHg 67%
    10:00 +25°C° 0 mm 1 m/s 747 mmHg 61%
    11:00 +26°C° 0 mm 1 m/s 746 mmHg 58%
    12:00 +27°C° 0 mm 1 m/s 746 mmHg 54%
    13:00 +27°C° 0 mm 1 m/s 746 mmHg 51%
    14:00 +28°C° 0 mm 1 m/s 745 mmHg 51%
    15:00 +28°C° 0 mm 1 m/s 745 mmHg 50%
    16:00 +28°C° 0 mm 1 m/s 745 mmHg 50%
    17:00 +27°C° 0 mm 1 m/s 744 mmHg 55%
    18:00 +26°C° 0 mm 1 m/s 744 mmHg 60%
    19:00 +23°C° 0 mm 0 m/s 743 mmHg 65%
    20:00 +24°C° 0 mm 1 m/s 743 mmHg 67%
    21:00 +23°C° 0 mm 1 m/s 743 mmHg 69%
    22:00 +21°C° 0 mm 1 m/s 743 mmHg 71%
    23:00 +21°C° 0 mm 1 m/s 742 mmHg 74%
    Arată mai mult